Regional Weather Roundup
Issued by NWS

Home | Current Version | Previous Version | Text Only | Print | Product List | Glossary Off
Versions: 1 2 3 4 5 6 7 8 9 10 11 12 13 14 15 16 17 18 19 20 21 22 23 24 25 26 27 28 29 30 31 32 33 34 35 36 37 38 39 40 41 42 43 44 45 46 47 48 49 50

423
ASUS45 KBOI 022010
RWRID

IDAHO REGIONAL WEATHER ROUNDUP
NATIONAL WEATHER SERVICE BOISE ID
200 PM MDT MON MAY 02 2016

NOTE: "FAIR" INDICATES FEW OR NO CLOUDS BELOW 12000 FEET
WITH NO SIGNIFICANT WEATHER AND/OR OBSTRUCTIONS TO VISIBILITY

IDZ012-014-022100-
SOUTHWEST IDAHO


CITY           SKY/WX    TMP DP  RH WIND       PRES   REMARKS
BOISE          FAIR      71  27  19 E6        30.15F
CALDWELL       FAIR      72  35  25 E7G18     30.14F
MOUNTAIN HOME  FAIR      71  26  18 E12       30.15F
$$

IDZ016-017-022100-
SOUTHCENTRAL IDAHO


CITY           SKY/WX    TMP DP  RH WIND       PRES   REMARKS
BURLEY         FAIR      64  31  28 CALM      30.18F
JEROME         FAIR      64  19  17 VRB7      30.19F
TWIN FALLS     FAIR      64  32  30 E6        30.19F
$$

IDZ019>023-022100-
SOUTHEAST IDAHO


CITY           SKY/WX    TMP DP  RH WIND       PRES   REMARKS
IDAHO FALLS    SUNNY     63  21  20 VRB7      30.23F
POCATELLO      MOSUNNY   63  25  23 NW8       30.22F
REXBURG        SUNNY     61  22  22 S7        30.22F
$$

IDZ006-010-011-018-031-032-022100-
CENTRAL IDAHO MOUNTAINS


CITY           SKY/WX    TMP DP  RH WIND       PRES   REMARKS
MCCALL         FAIR      64  26  23 W6        30.17F
HAILEY         MOSUNNY   61  34  36 SE9       30.24F
STANLEY          N/A     60  20  21 CALM      30.23F
SALMON           N/A    N/A N/A N/A MISG        N/A
CHALLIS        FAIR      65  23  20 NE5       30.19F
$$

IDZ002-004-006-007-026-022100-
NORTHERN IDAHO


CITY           SKY/WX    TMP DP  RH WIND       PRES   REMARKS
LEWISTON       FAIR      75  51  43 E7        30.08F
LOWELL           N/A     76  38  25 VRB7      30.06F
COEUR D`ALENE  FAIR      73  39  29 NE3       30.08F
MULLAN PASS    FAIR      60  27  28 CALM      30.24F
$$




USA.gov is the U.S. government's official web portal to all federal, state and local government web resources and services.